Location: Asheville, NC
(35.6000°N, 82.5500°W)
Time: 01:55:27
(UTC-05:00)

Tiangong 2 - Pass Details

Date: 16 February 2018
Orbit: 384 x 388 km, 42.8° (Epoch: 21 February)

Event Time Altitude Azimuth Distance (km) Brightness Sun altitude
Rises 19:02:17 0° 288° (WNW) 2,259 6.3 -10.6°
Reaches altitude 10° 19:04:41 10° 305° (NW) 1,404 4.6 -11.1°
Maximum altitude 19:07:12 21° 358° (N) 920 2.9 -11.6°
Enters shadow 19:09:03 14° 42° (NE) 1,207 3.1 -12.0°
